Location: Go�ngahuizen
(53.0821°N, 5.8849°E)
Time: 17:52:28
(UTC+00:00)

Cosmos 44 Rocket - Pass Details

Date: 09 April 2020
Orbit: 656 x 734 km, 65.1° (Epoch: 24 May)

Event Time Altitude Azimuth Distance (km) Brightness Sun altitude
Exits shadow 23:53:58 38° 57° (ENE) 1,006 4.3 -28.8°
Drops below altitude 10° 23:56:57 10° 46° (NE) 2,085 6.3 -28.7°
Sets 23:59:16 0° 45° (NE) 3,007 7.3 -28.7°
